RYR45L EGCC-EGKK

Flight info

Callsign RYR45L
Flight time 0h 35m
Altitude 18000
Route DCT SANBA/N0345F190 DCT UTUXA DCT HON N859 KIDLI KIDLI1G
Aircraft B738/M-SDE2E3FGHIRWXY/LB1

Departure

Time 2026-05-06 13:02
Airport Manchester Airport (EGCC)

Arrival

Time 2026-05-06 13:38
Airport London Gatwick Airport (EGKK)
Time Latitude Longitude Altitude Speed Heading
2026-05-06 12:37 53.35905 -2.27159 239 ft 0 kts 66°
2026-05-06 12:54 53.35904 -2.27162 239 ft 2 kts 67°
2026-05-06 12:54 53.35901 -2.27189 239 ft 2 kts 98°
2026-05-06 12:54 53.35907 -2.27214 240 ft 2 kts 134°
2026-05-06 12:55 53.35920 -2.27230 240 ft 2 kts 158°
2026-05-06 12:55 53.35933 -2.27237 240 ft 1 kts 172°
2026-05-06 12:55 53.35936 -2.27237 240 ft 0 kts 175°
2026-05-06 12:57 53.35921 -2.27234 240 ft 7 kts 172°
2026-05-06 12:57 53.35859 -2.27222 240 ft 11 kts 178°
2026-05-06 12:57 53.35794 -2.27306 241 ft 14 kts 233°
2026-05-06 12:58 53.35729 -2.27441 243 ft 16 kts 232°
2026-05-06 12:58 53.35655 -2.27593 246 ft 17 kts 227°
2026-05-06 12:58 53.35570 -2.27723 248 ft 16 kts 222°
2026-05-06 12:58 53.35494 -2.27857 249 ft 16 kts 226°
2026-05-06 12:59 53.35420 -2.27986 251 ft 15 kts 226°
2026-05-06 12:59 53.35348 -2.28107 252 ft 14 kts 224°
2026-05-06 12:59 53.35276 -2.28219 253 ft 15 kts 224°
2026-05-06 12:59 53.35184 -2.28400 255 ft 23 kts 230°
2026-05-06 13:00 53.35083 -2.28605 258 ft 25 kts 231°
2026-05-06 13:00 53.34971 -2.28824 260 ft 24 kts 226°
2026-05-06 13:00 53.34863 -2.29026 263 ft 23 kts 227°
2026-05-06 13:00 53.34758 -2.29219 265 ft 22 kts 226°
2026-05-06 13:01 53.34631 -2.29343 268 ft 21 kts 180°
2026-05-06 13:01 53.34543 -2.29213 269 ft 17 kts 69°
2026-05-06 13:01 53.34653 -2.28986 266 ft 50 kts 51°
2026-05-06 13:01 53.35023 -2.28216 256 ft 119 kts 50°
2026-05-06 13:02 53.35671 -2.26886 312 ft 169 kts 51°
2026-05-06 13:02 53.36440 -2.25278 895 ft 183 kts 51°
2026-05-06 13:02 53.37251 -2.23540 1602 ft 195 kts 52°
2026-05-06 13:02 53.38044 -2.21669 2279 ft 196 kts 61°
2026-05-06 13:03 53.38420 -2.19539 3054 ft 192 kts 89°
2026-05-06 13:03 53.38118 -2.17309 3551 ft 205 kts 117°
2026-05-06 13:03 53.37095 -2.15553 3847 ft 226 kts 152°
2026-05-06 13:03 53.35494 -2.15166 4049 ft 253 kts 188°
2026-05-06 13:04 53.33770 -2.16181 4507 ft 269 kts 211°
2026-05-06 13:04 53.32116 -2.17584 4969 ft 269 kts 190°
2026-05-06 13:04 53.30262 -2.17741 5050 ft 269 kts 179°
2026-05-06 13:04 53.28367 -2.17859 5050 ft 273 kts 181°
2026-05-06 13:05 53.26469 -2.18058 5045 ft 273 kts 182°
2026-05-06 13:05 53.24583 -2.18310 5046 ft 270 kts 184°
2026-05-06 13:05 53.22707 -2.18591 5180 ft 272 kts 184°
2026-05-06 13:05 53.20822 -2.18884 5768 ft 278 kts 185°
2026-05-06 13:06 53.18876 -2.19188 6469 ft 284 kts 185°
2026-05-06 13:06 53.16894 -2.19500 7203 ft 285 kts 186°
2026-05-06 13:06 53.14912 -2.19776 7960 ft 287 kts 180°
2026-05-06 13:06 53.12963 -2.19079 8679 ft 289 kts 158°
2026-05-06 13:07 53.11092 -2.17789 9409 ft 293 kts 157°
2026-05-06 13:07 53.09203 -2.16457 10096 ft 296 kts 157°
2026-05-06 13:07 53.07260 -2.15085 10452 ft 313 kts 157°
2026-05-06 13:07 53.05186 -2.13629 10616 ft 334 kts 158°
2026-05-06 13:08 53.02998 -2.12100 10969 ft 347 kts 158°
2026-05-06 13:08 53.00745 -2.10535 11561 ft 352 kts 158°
2026-05-06 13:08 52.98508 -2.08986 12240 ft 355 kts 158°
2026-05-06 13:08 52.96208 -2.07398 12909 ft 359 kts 158°
2026-05-06 13:09 52.93888 -2.05801 13599 ft 363 kts 159°
2026-05-06 13:09 52.91543 -2.04190 14250 ft 366 kts 159°
2026-05-06 13:09 52.89172 -2.02564 14931 ft 369 kts 159°
2026-05-06 13:09 52.86796 -2.00936 15691 ft 369 kts 159°
2026-05-06 13:10 52.84462 -1.99338 16540 ft 366 kts 159°
2026-05-06 13:10 52.82115 -1.97734 17417 ft 363 kts 159°
2026-05-06 13:10 52.79775 -1.96136 18271 ft 362 kts 159°
2026-05-06 13:10 52.77443 -1.94547 18818 ft 362 kts 159°
2026-05-06 13:11 52.75116 -1.92962 19047 ft 362 kts 159°
2026-05-06 13:11 52.72777 -1.91372 19025 ft 363 kts 159°
2026-05-06 13:11 52.70475 -1.89808 19033 ft 361 kts 159°
2026-05-06 13:11 52.68159 -1.88236 19036 ft 360 kts 159°
2026-05-06 13:12 52.65852 -1.86673 19031 ft 359 kts 159°
2026-05-06 13:12 52.63532 -1.85102 19028 ft 359 kts 159°
2026-05-06 13:12 52.61221 -1.83539 19033 ft 359 kts 159°
2026-05-06 13:12 52.58903 -1.81974 19033 ft 360 kts 159°
2026-05-06 13:13 52.56589 -1.80412 19021 ft 360 kts 159°
2026-05-06 13:13 52.54269 -1.78849 19018 ft 360 kts 159°
2026-05-06 13:13 52.51947 -1.77286 19022 ft 360 kts 159°
2026-05-06 13:13 52.49650 -1.75741 19019 ft 361 kts 160°
2026-05-06 13:14 52.47328 -1.74181 19022 ft 361 kts 159°
2026-05-06 13:14 52.45001 -1.72620 19016 ft 361 kts 160°
2026-05-06 13:14 52.42671 -1.71057 19026 ft 361 kts 160°
2026-05-06 13:14 52.40343 -1.69499 19021 ft 362 kts 160°
2026-05-06 13:15 52.38010 -1.67939 19027 ft 362 kts 160°
2026-05-06 13:15 52.35680 -1.66391 19019 ft 362 kts 161°
2026-05-06 13:15 52.33314 -1.65010 19019 ft 361 kts 163°
2026-05-06 13:15 52.30943 -1.63767 19109 ft 351 kts 165°
2026-05-06 13:16 52.28654 -1.62603 19046 ft 343 kts 165°
2026-05-06 13:16 52.26412 -1.61469 18778 ft 339 kts 165°
2026-05-06 13:16 52.24170 -1.60328 18535 ft 334 kts 165°
2026-05-06 13:16 52.21960 -1.59195 18294 ft 330 kts 165°
2026-05-06 13:17 52.19784 -1.58074 18019 ft 326 kts 164°
2026-05-06 13:17 52.17626 -1.56959 17740 ft 324 kts 164°
2026-05-06 13:17 52.15509 -1.55863 17463 ft 322 kts 164°
2026-05-06 13:17 52.13382 -1.54763 17217 ft 320 kts 164°
2026-05-06 13:18 52.11267 -1.53668 16942 ft 318 kts 164°
2026-05-06 13:18 52.09163 -1.52580 16675 ft 316 kts 164°
2026-05-06 13:18 52.07070 -1.51498 16421 ft 315 kts 164°
2026-05-06 13:18 52.04978 -1.50418 16158 ft 315 kts 164°
2026-05-06 13:19 52.02893 -1.49344 15877 ft 314 kts 164°
2026-05-06 13:19 52.00809 -1.48271 15625 ft 314 kts 164°
2026-05-06 13:19 51.98731 -1.47200 15375 ft 313 kts 164°
2026-05-06 13:19 51.96654 -1.46132 15131 ft 313 kts 164°
2026-05-06 13:20 51.94564 -1.45058 15042 ft 317 kts 165°
2026-05-06 13:20 51.92448 -1.43972 15001 ft 318 kts 164°
2026-05-06 13:20 51.90350 -1.42894 14989 ft 315 kts 164°
2026-05-06 13:20 51.88299 -1.41842 14988 ft 312 kts 164°
2026-05-06 13:21 51.86230 -1.40781 14993 ft 312 kts 164°
2026-05-06 13:21 51.84152 -1.39718 14997 ft 313 kts 165°
2026-05-06 13:21 51.82067 -1.38652 14993 ft 315 kts 165°
2026-05-06 13:21 51.79973 -1.37583 14973 ft 315 kts 164°
2026-05-06 13:22 51.77881 -1.36515 14927 ft 313 kts 164°
2026-05-06 13:22 51.75889 -1.35098 14883 ft 308 kts 150°
2026-05-06 13:22 51.74092 -1.33264 14495 ft 307 kts 148°
2026-05-06 13:22 51.72337 -1.31374 14017 ft 306 kts 147°
2026-05-06 13:23 51.70572 -1.29463 13520 ft 305 kts 147°
2026-05-06 13:23 51.68804 -1.27563 12993 ft 304 kts 147°
2026-05-06 13:23 51.67036 -1.25683 12456 ft 304 kts 148°
2026-05-06 13:23 51.65269 -1.23818 12093 ft 301 kts 148°
2026-05-06 13:24 51.63507 -1.21971 12037 ft 306 kts 148°
2026-05-06 13:24 51.61701 -1.20085 11999 ft 311 kts 148°
2026-05-06 13:24 51.59891 -1.18201 11993 ft 308 kts 148°
2026-05-06 13:24 51.58120 -1.16362 11990 ft 304 kts 148°
2026-05-06 13:25 51.56345 -1.14521 11988 ft 304 kts 148°
2026-05-06 13:25 51.54557 -1.12670 11995 ft 307 kts 148°
2026-05-06 13:25 51.52747 -1.10801 12001 ft 310 kts 148°
2026-05-06 13:25 51.50953 -1.08948 11994 ft 303 kts 148°
2026-05-06 13:26 51.49212 -1.07153 11975 ft 291 kts 148°
2026-05-06 13:26 51.47542 -1.05431 11974 ft 281 kts 148°
2026-05-06 13:26 51.45907 -1.03748 11982 ft 278 kts 148°
2026-05-06 13:26 51.44262 -1.02056 11824 ft 285 kts 148°
2026-05-06 13:27 51.43134 -1.00897 11495 ft 295 kts 148°
2026-05-06 13:27 51.41354 -0.99071 11072 ft 307 kts 148°
2026-05-06 13:27 51.38949 -0.96604 10529 ft 310 kts 148°
2026-05-06 13:27 51.37721 -0.95345 10281 ft 311 kts 147°
2026-05-06 13:28 51.35902 -0.93483 9906 ft 307 kts 147°
2026-05-06 13:28 51.34119 -0.91659 9551 ft 302 kts 147°
2026-05-06 13:28 51.32356 -0.89856 9251 ft 300 kts 147°
2026-05-06 13:28 51.30627 -0.88091 8941 ft 299 kts 147°
2026-05-06 13:29 51.28868 -0.86296 8624 ft 297 kts 147°
2026-05-06 13:29 51.27128 -0.84523 8312 ft 296 kts 147°
2026-05-06 13:29 51.25395 -0.82757 8006 ft 295 kts 147°
2026-05-06 13:29 51.23669 -0.80973 7693 ft 294 kts 142°
2026-05-06 13:30 51.22354 -0.78581 7309 ft 285 kts 119°
2026-05-06 13:30 51.21368 -0.75852 6880 ft 283 kts 117°
2026-05-06 13:30 51.20390 -0.73136 6424 ft 282 kts 118°
2026-05-06 13:30 51.19396 -0.70437 5886 ft 283 kts 118°
2026-05-06 13:31 51.18382 -0.67737 5305 ft 286 kts 118°
2026-05-06 13:31 51.17355 -0.65039 4675 ft 289 kts 119°
2026-05-06 13:31 51.16299 -0.62292 4025 ft 292 kts 118°
2026-05-06 13:31 51.15234 -0.59539 3584 ft 287 kts 119°
2026-05-06 13:32 51.14208 -0.56901 3440 ft 272 kts 119°
2026-05-06 13:32 51.13245 -0.54431 3399 ft 253 kts 119°
2026-05-06 13:32 51.12354 -0.52154 3395 ft 231 kts 119°
2026-05-06 13:32 51.11544 -0.50086 3375 ft 209 kts 119°
2026-05-06 13:33 51.10897 -0.48158 3360 ft 184 kts 98°
2026-05-06 13:33 51.11015 -0.46310 3444 ft 167 kts 70°
2026-05-06 13:33 51.11314 -0.44487 3258 ft 172 kts 70°
2026-05-06 13:33 51.11599 -0.42677 3016 ft 166 kts 72°
2026-05-06 13:34 51.11844 -0.40948 2792 ft 154 kts 74°
2026-05-06 13:34 51.12068 -0.39307 2586 ft 150 kts 73°
2026-05-06 13:34 51.12287 -0.37694 2389 ft 150 kts 73°
2026-05-06 13:34 51.12506 -0.36068 2204 ft 151 kts 72°
2026-05-06 13:35 51.12725 -0.34440 1974 ft 148 kts 71°
2026-05-06 13:35 51.12943 -0.32837 1778 ft 149 kts 73°
2026-05-06 13:35 51.13164 -0.31181 1602 ft 154 kts 73°
2026-05-06 13:35 51.13369 -0.29545 1403 ft 152 kts 72°
2026-05-06 13:36 51.13575 -0.27894 1133 ft 151 kts 72°
2026-05-06 13:36 51.13795 -0.26294 902 ft 145 kts 72°
2026-05-06 13:36 51.14006 -0.24757 745 ft 143 kts 74°
2026-05-06 13:36 51.14232 -0.23176 595 ft 148 kts 72°
2026-05-06 13:37 51.14447 -0.21595 378 ft 144 kts 72°
2026-05-06 13:37 51.14658 -0.20096 216 ft 131 kts 73°
2026-05-06 13:37 51.14829 -0.18891 212 ft 90 kts 77°
2026-05-06 13:37 51.14932 -0.18153 210 ft 51 kts 76°
2026-05-06 13:38 51.15082 -0.17773 210 ft 16 kts 22°
2026-05-06 13:38 51.15116 -0.17764 206 ft 0 kts
2026-05-06 13:38 51.15152 -0.17766 207 ft 15 kts 356°
2026-05-06 13:38 51.15248 -0.17833 214 ft 15 kts 287°
2026-05-06 13:39 51.15224 -0.17993 208 ft 15 kts 260°
2026-05-06 13:39 51.15208 -0.18201 205 ft 22 kts 291°